Regional Weather Roundup
Issued by NWS

Home | Current Version | Previous Version | Graphics & Text | Print | Product List | Glossary On
Versions: 1 2 3 4 5 6 7 8 9 10 11 12 13 14 15 16 17 18 19 20 21 22 23 24 25 26 27 28 29 30 31 32 33 34 35 36 37 38 39 40 41 42 43 44 45 46 47 48 49 50
412
ASUS43 KLSX 250110
RWRMO

WEATHER SUMMARY FOR MISSOURI
NATIONAL WEATHER SERVICE SPRINGFIELD MO
800 PM CDT SAT JUN 24 2017

NOTE: "FAIR" INDICATES FEW OR NO CLOUDS BELOW 12,000 FEET WITH NO
       SIGNIFICANT WEATHER AND/OR OBSTRUCTIONS TO VISIBILITY.
       CURRENT SKY AND/OR WEATHER CONDITIONS ARE NOT AVAILABLE FOR
       CHILLICOTHE AND FARMINGTON.

MOZ001>031-035>038-043-044-053-054-250200-
...NORTHERN AND WESTERN MISSOURI...

CITY           SKY/WX    TMP DP  RH WIND       PRES   REMARKS
KANSAS CTY INT MOCLDY    72  51  47 SW5       30.16S
KANSAS C DTWN  CLEAR     76  42  29 W5        30.15R
LEE`S SUMMIT   CLEAR     76  45  33 NW5       30.17S
ST JOSEPH      CLEAR     73  53  49 W5        30.14S
CHILLICOTHE      N/A     76  44  32 CALM      30.14F
KIRKSVILLE     CLEAR     71  46  40 W5        30.13F

$$
MOZ066>068-077>081-088>096-101>105-250200-
...SOUTHWEST MISSOURI...

CITY           SKY/WX    TMP DP  RH WIND       PRES   REMARKS
SPRINGFIELD    CLEAR     73  49  42 N6        30.18R
JOPLIN         PTCLDY    75  52  44 N7        30.19R
BRANSON        PTCLDY    73  50  43 NW7       30.19R

$$
MOZ032>034-039>042-045>050-055>058-069>072-250200-
...CENTRAL MISSOURI...

CITY           SKY/WX    TMP DP  RH WIND       PRES   REMARKS
COLUMBIA       PTCLDY    71  47  42 CALM      30.17R
JEFFERSON CITY CLEAR     75  47  36 NW5       30.16R
ROLLA          CLEAR     70  48  45 NW6       30.17R
SEDALIA        CLOUDY    72  51  47 NW3       30.18S
WHITEMAN AFB   MOCLDY    73  49  43 NW3       30.16S
WARRENSBURG    CLOUDY    72  48  43 CALM      30.16S
OSAGE BEACH    CLEAR     70  54  56 CALM      30.18R

$$
MOZ051-052-059>065-250200-
...EAST CENTRAL MISSOURI...

CITY           SKY/WX    TMP DP  RH WIND       PRES   REMARKS
ST LOUIS INTL  PTCLDY    75  43  31 NW8       30.14R
SPIRIT OF STL  CLEAR     73  46  38 NW7       30.14R
ST CHARLES     CLEAR     73  44  35 NW9       30.13R

$$
MOZ072>076-082>087-097>100-106>115-250200-
...SOUTH CENTRAL AND SOUTHEAST MISSOURI...

CITY           SKY/WX    TMP DP  RH WIND       PRES   REMARKS
CAPE GIRARDEAU CLOUDY    74  60  61 CALM      30.12R
FARMINGTON     CLEAR     73  48  41 NW5       30.16R
POPLAR BLUFF   MOCLDY    75  61  61 CALM      30.13R
WEST PLAINS    CLOUDY    73  49  42 N5        30.18R

$$




USA.gov is the U.S. government's official web portal to all federal, state and local government web resources and services.